Main page
METAR-TAF:

METAR-TAF

Airports :

Gao International Airport

Gao, Mali

latitude: 16-16N, longitude: 000-03W, elevation: 265 m

METAR: missing

Time: 20:04 (20:04 UTC)

Forecast

The report was made 3 hours and 4 minutes ago, at 17:00 UTC
Forecast valid from 01 at 18 UTC to 02 at 18 UTC
Wind 10 kt from the East
Visibility: 8000 m

TAF: GAGO 011700Z 0118/0218 10010KT 8000 NSC

Weather observations and forecasts of more than 4000 airports (METAR and TAF reports).

The available stations are represented by yellow and red dots on the map.

Hover mouse over dot to see the name of the station.

Then click to see weather observations and forecasts.

To change the map : click on the green buttons with a black cross to zoom in, on the green button with a dash to zoom out, or on the green arrows for adjacent maps.


METAR-TAF: